STARLINK-4027

operational
NORAD ID: 52601 Int'l Des: 2022-052 Owner: SPXS Country: US Constellation: starlink
LEOCIRCULAR

关于 STARLINK-4027

正在加载描述...

实时位置

正在加载3D地球...

即将过境

高度历史

Altitude vs Time

uPlot chart will show altitude changes over time

两行轨道根数

1 52601U 22052D 25251.63913654 -.00000192 00000-0 60338-5 0 9995
2 52601 53.2197 16.3775 0001270 88.3314 271.7824 15.08827409184175
Epoch: Sep 8, 2025 • Age: 4 hours

当前状态

高度 556.7 km
速度 7.58 km/s
星下点 -47.24°S, 36.64°E
发射日期 May 14, 2022
运行时间 3.3 years
类型 internet

技术详情

分类 Payload
质量 297.00 kg
干质量 275.00 kg
总质量 297.00 kg
长度 0.20 m
直径 2.80 m
跨度 9.00 m
形状 Box + pan
制造商 SPXS
平台类型 Starlink
阶段状态 In Orbit
所有者/国家 SPXS/US

大型星座

Loading constellations...